| time (UTC) | temp F | wind direction | speed MPH | gust MPH | rain 1hr in | rain 24hr in | rain mn in | humidity % | barometer mb |
| 20260504050006 | 56 | 65 | 11.0 | 14.0 | 0.00 | 0.00 | 0.00 | 37 | 1011.3 |
| 20260504044513 | 57 | 46 | 2.0 | 4.0 | 0.00 | 0.00 | 0.00 | 35 | 1010.8 |
| 20260504043016 | 57 | 46 | 1.0 | 2.0 | 0.00 | 0.00 | 0.00 | 36 | 1010.4 |
| 20260504041521 | 58 | 46 | 1.0 | 5.0 | 0.00 | 0.00 | 0.00 | 35 | 1010.2 |
| 20260504040003 | 58 | 61 | 5.0 | 7.0 | 0.00 | 0.00 | 0.00 | 35 | 1009.9 |
| 20260504034504 | 60 | 68 | 5.0 | 9.0 | 0.00 | 0.00 | 0.00 | 34 | 1009.6 |
| 20260504033014 | 61 | 67 | 10.0 | 18.0 | 0.00 | 0.00 | 0.00 | 32 | 1009.2 |
| 20260504031516 | 62 | 56 | 9.0 | 12.0 | 0.00 | 0.01 | 0.00 | 27 | 1008.8 |
| 20260504030019 | 64 | 41 | 3.0 | 6.0 | 0.00 | 0.01 | 0.00 | 23 | 1008.2 |
| 20260504024504 | 64 | 61 | 2.0 | 4.0 | 0.00 | 0.01 | 0.00 | 22 | 1007.8 |
| 20260504023008 | 66 | 53 | 2.0 | 4.0 | 0.00 | 0.01 | 0.00 | 22 | 1007.9 |
| 20260504021515 | 68 | 56 | 3.0 | 6.0 | 0.00 | 0.01 | 0.00 | 21 | 1007.9 |
| 20260504020019 | 69 | 55 | 4.0 | 7.0 | 0.00 | 0.01 | 0.00 | 20 | 1008.0 |
| 20260504014531 | 71 | 36 | 5.0 | 9.0 | 0.00 | 0.01 | 0.00 | 19 | 1008.0 |
| 20260504013006 | 72 | 44 | 3.0 | 9.0 | 0.00 | 0.01 | 0.00 | 19 | 1007.9 |
| 20260504011519 | 73 | 20 | 4.0 | 9.0 | 0.00 | 0.01 | 0.00 | 18 | 1008.0 |
| 20260504010016 | 74 | 32 | 3.0 | 8.0 | 0.00 | 0.01 | 0.00 | 18 | 1008.0 |
| 20260504004524 | 74 | 11 | 5.0 | 9.0 | 0.00 | 0.01 | 0.00 | 17 | 1008.1 |
| 20260504003006 | 75 | 47 | 6.0 | 10.0 | 0.00 | 0.01 | 0.00 | 17 | 1008.3 |
| 20260504001510 | 76 | 325 | 4.0 | 10.0 | 0.00 | 0.01 | 0.00 | 16 | 1008.3 |
| 20260504000017 | 76 | 312 | 4.0 | 12.0 | 0.00 | 0.01 | 0.00 | 16 | 1008.3 |
| 20260503234520 | 76 | 348 | 5.0 | 12.0 | 0.00 | 0.01 | 0.00 | 16 | 1008.5 |
| 20260503233028 | 76 | 352 | 3.0 | 10.0 | 0.00 | 0.01 | 0.00 | 15 | 1008.5 |
| 20260503231514 | 77 | 356 | 8.0 | 15.0 | 0.00 | 0.01 | 0.00 | 15 | 1008.7 |
| 20260503230014 | 76 | 323 | 2.0 | 9.0 | 0.00 | 0.01 | 0.00 | 15 | 1008.8 |
| 20260503224519 | 76 | 317 | 5.0 | 16.0 | 0.00 | 0.01 | 0.00 | 15 | 1009.1 |
| 20260503223024 | 76 | 297 | 4.0 | 8.0 | 0.00 | 0.01 | 0.00 | 15 | 1009.2 |
| 20260503221529 | 76 | 287 | 5.0 | 10.0 | 0.00 | 0.01 | 0.00 | 14 | 1009.5 |
| 20260503220012 | 75 | 326 | 4.0 | 7.0 | 0.00 | 0.01 | 0.00 | 16 | 1009.7 |
| 20260503214503 | 75 | 298 | 4.0 | 12.0 | 0.00 | 0.01 | 0.00 | 16 | 1009.8 |
| 20260503213005 | 75 | 335 | 6.0 | 10.0 | 0.00 | 0.01 | 0.00 | 16 | 1010.1 |
| 20260503211508 | 75 | 1 | 3.0 | 9.0 | 0.00 | 0.01 | 0.00 | 17 | 1010.3 |
| 20260503210012 | 75 | 335 | 4.0 | 15.0 | 0.00 | 0.01 | 0.00 | 16 | 1010.3 |
| 20260503204519 | 74 | 283 | 5.0 | 12.0 | 0.00 | 0.01 | 0.00 | 16 | 1010.6 |
| 20260503203005 | 73 | 328 | 4.0 | 9.0 | 0.00 | 0.01 | 0.00 | 18 | 1011.0 |
| 20260503201510 | 73 | 324 | 4.0 | 9.0 | 0.00 | 0.01 | 0.00 | 17 | 1011.3 |
| 20260503200010 | 72 | 338 | 2.0 | 9.0 | 0.00 | 0.01 | 0.00 | 19 | 1011.4 |
| 20260503194514 | 72 | 330 | 5.0 | 11.0 | 0.00 | 0.01 | 0.00 | 18 | 1011.7 |
| 20260503193021 | 72 | 295 | 6.0 | 14.0 | 0.00 | 0.01 | 0.00 | 18 | 1012.0 |
| 20260503191516 | 71 | 257 | 6.0 | 16.0 | 0.00 | 0.01 | 0.00 | 19 | 1012.2 |
| 20260503190009 | 71 | 261 | 7.0 | 14.0 | 0.00 | 0.01 | 0.00 | 19 | 1012.2 |
| 20260503184515 | 71 | 275 | 6.0 | 14.0 | 0.00 | 0.01 | 0.00 | 19 | 1012.4 |
| 20260503183018 | 70 | 289 | 2.0 | 12.0 | 0.00 | 0.01 | 0.00 | 1012.5 | |
| 20260503181506 | 70 | 293 | 4.0 | 13.0 | 0.00 | 0.01 | 0.00 | 21 | 1012.8 |
| 20260503180008 | 70 | 264 | 5.0 | 10.0 | 0.00 | 0.01 | 0.00 | 21 | 1013.1 |
| 20260503174512 | 69 | 359 | 5.0 | 13.0 | 0.00 | 0.01 | 0.00 | 23 | 1013.1 |
| 20260503173017 | 68 | 295 | 4.0 | 9.0 | 0.00 | 0.01 | 0.00 | 23 | 1013.5 |
| 20260503171526 | 67 | 332 | 3.0 | 7.0 | 0.00 | 0.01 | 0.00 | 26 | 1013.5 |
| 20260503081526 | 44 | 259 | 0.0 | 2.0 | 0.00 | 0.01 | 0.00 | 79 | 1016.2 |
| 20260503071525 | 46 | 231 | 2.0 | 4.0 | 0.00 | 0.01 | 0.00 | 75 | 1016.3 |